Home   Weather   Brampton   Past weeks

Flag for Canada Past Weather in Brampton, Ontario, Canada — Yesterday and Last 2 Weeks

Now
61 °F

Mostly cloudy.


Feels Like: 61 °F
Forecast: 57 / 65 °F
Wind: 10 mph from East

Location: Toronto Pearson International Airport

Current Time: Sep 30, 2016 at 7:55:12 AM

Latest Report: Sep 30, 2016 at 7:00 AM


Visibility: 15 mi

Pressure: 30.32 "Hg

Humidity: 83%

Dew Point: 55 °F

Location of BramptonLocation

Past Weather in Brampton — Graph

°F

Brampton Temperature Yesterday

Maximum temperature yesterday: 64 °F (at 12:00 AM)
Minimum temperature yesterday: 55 °F (at 10:47 AM)
Average temperature yesterday: 60 °F

High & Low Weather Summary for the Past Weeks

 TemperatureHumidityPressure
High84 °F (Sep 22, 3:00 PM)94% (Sep 17, 2:00 AM)30.37 "Hg (Sep 17, 2:00 AM)
Low48 °F (Sep 24, 5:00 AM)22% (Sep 20, 7:00 PM)29.73 "Hg (Sep 27, 3:00 PM)
Average65 °F68%30.09 "Hg
* Reported Sep 15 6:00 AM — Sep 30 6:00 AM, Brampton, Weather by CustomWeather, © 2016

Note: Actual official high and low records may vary slightly from our data, if they occured in-between our weather recording intervals... More about our weather records

Advertising

Brampton Weather History for the Previous 24 Hours

Scroll right to see more
 ConditionsComfort  
Time TempWeatherWind HumidityBarometerVisibility
6:00 AM
Fri, Sep 30
61 °FPartly cloudy.13 mph83%30.32 "Hg15 mi
5:49 AM61 °FPartly cloudy.14 mph83%30.32 "Hg15 mi
5:00 AM61 °FPartly cloudy.12 mph83%30.32 "Hg15 mi
4:00 AM61 °FPartly cloudy.10 mph77%30.32 "Hg15 mi
3:00 AM61 °FPassing clouds.8 mph77%30.32 "Hg15 mi
2:00 AM61 °FPassing clouds.9 mph77%30.34 "Hg15 mi
1:00 AM61 °FPassing clouds.14 mph77%30.34 "Hg15 mi
12:00 AM61 °FLight rain. Mostly cloudy.13 mph77%30.36 "Hg12 mi
11:00 PM
Thu, Sep 29
61 °FLight rain. Overcast.12 mph77%30.36 "Hg12 mi
10:00 PM59 °FMostly cloudy.10 mph82%30.35 "Hg12 mi
9:00 PM59 °FLight rain. Fog.8 mph88%30.35 "Hg6 mi
8:00 PM59 °FLight rain. Fog.6 mph88%30.35 "Hg6 mi
7:00 PM59 °FLight rain. Fog.13 mph94%30.34 "Hg2 mi
6:00 PM59 °FLight rain. Fog.13 mph94%30.32 "Hg3 mi
5:00 PM59 °FLight rain. Fog.20 mph88%30.31 "Hg6 mi
4:00 PM59 °FLight rain. Fog.14 mph88%30.32 "Hg6 mi
3:46 PM59 °FLight rain. Fog.15 mph88%30.32 "Hg6 mi
3:00 PM59 °FScattered showers. Low clouds.18 mph88%30.32 "Hg15 mi
2:00 PM57 °FLight rain. Fog.18 mph94%30.31 "Hg6 mi
1:00 PM57 °FLight rain. Fog.16 mph94%30.33 "Hg3 mi
12:00 PM57 °FLight rain. Low clouds.17 mph94%30.32 "Hg15 mi
11:00 AM55 °FLight rain. Fog.12 mph94%30.32 "Hg3 mi
10:47 AM55 °FLight rain. Fog.14 mph94%30.31 "Hg4 mi
10:00 AM57 °FLight rain. Overcast.10 mph88%30.30 "Hg6 mi
9:00 AM59 °FLight rain. Overcast.15 mph82%30.29 "Hg6 mi
8:46 AM59 °FLight rain. Overcast.14 mph82%30.29 "Hg6 mi
8:00 AM59 °FOvercast.15 mph77%30.27 "Hg15 mi
7:00 AM61 °FOvercast.15 mph77%30.25 "Hg15 mi
Weather by CustomWeather, © 2016

See weather overviewHow to use our weather pages